Regional Weather Roundup
Issued by NWS

Home | Current Version | Previous Version | Text Only | Print | Product List | Glossary On
Versions: 1 2 3 4 5 6 7 8 9 10 11 12 13 14 15 16 17 18 19 20 21 22 23 24 25 26 27 28 29 30 31 32 33 34 35 36 37 38 39 40 41 42 43 44 45 46 47 48 49 50
000
ASUS43 KMKX 241921
RWRWI

WISCONSIN REGIONAL WEATHER ROUNDUP
NATIONAL WEATHER SERVICE MILWAUKEE/SULLIVAN WI
200 PM CDT SUN JUL 24 2016

NOTE: "FAIR" INDICATES FEW OR NO CLOUDS BELOW 12,000 FEET WITH NO
SIGNIFICANT WEATHER AND/OR OBSTRUCTIONS TO VISIBILITY.

WIZ001-002-006>008-014>016-023>028-242000-
NORTHWEST WISCONSIN

CITY           SKY/WX    TMP DP  RH WIND       PRES   REMARKS
SUPERIOR ARPT  MOSUNNY   80  63  55 W14G21    29.81S HX  82
ASHLAND        PTSUNNY   81  64  56 W12       29.80R HX  82
HAYWARD        MOSUNNY   81  63  54 W8G17     29.84S HX  82
SIREN          MOSUNNY   79  61  53 W15       29.88R HX  80
CUMBERLAND     SUNNY     79  61  53 W17G24    29.86F HX  80
RICE LAKE      SUNNY     80  65  59 W8G17     29.86F HX  82
CHETEK         MOSUNNY   82  65  57 W9G20     29.85F HX  83
LADYSMITH      MOSUNNY   82  64  54 W13       29.86S HX  83
EAU CLAIRE     SUNNY     85  64  49 W10       29.84S HX  86
MENOMONIE      SUNNY     86  63  46 W13       29.85F HX  87
NEW RICHMOND   SUNNY     82  61  49 NW16      29.88R HX  82
OSCEOLA        SUNNY     81  63  55 NW13G21   29.90F HX  82
$$

WIZ003>005-009-010-017-018-242000-
NORTH CENTRAL WISCONSIN

CITY           SKY/WX    TMP DP  RH WIND       PRES   REMARKS
MANITOWISH WTR MOSUNNY   79  65  62 W7        29.83R HX  81
ARBOR VITAE    MOSUNNY   80  67  65 NW8       29.83S HX  82
WOODRUFF       MOSUNNY   80  67  65 NW8       29.83S HX  82
RHINELANDER    MOSUNNY   82  68  62 W10G20    29.84S HX  85
EAGLE RIVER    PTSUNNY   78  67  68 SW7       29.82S HX  80
LAND O LAKES   PTSUNNY   80  66  61 W12       29.83S HX  82
PHILLIPS       MOSUNNY   79  65  62 W6        29.83F HX  81
TOMAHAWK       MOSUNNY   81  66  60 NW9G16    29.84S HX  83
MEDFORD        CLOUDY    80  67  62 W10       29.86S HX  83
MERRILL        MOSUNNY   82  72  73 W8        29.84S HX  86
$$

WIZ029-030-035-036-043>047-242000-
CENTRAL WISCONSIN

CITY           SKY/WX    TMP DP  RH WIND       PRES   REMARKS
WAUSAU         MOSUNNY   82  72  71 NW5       29.82S HX  87
MOSINEE        PTSUNNY   81  73  78 W10       29.86R HX  85
MARSHFIELD     PTSUNNY   85  70  60 NW12      29.85S HX  89
STEVENS POINT  PTSUNNY   81  73  75 W9        29.84S HX  85
WAUPACA        PTSUNNY   87  76  71 W13       29.81S HX  98
WAUTOMA        PTSUNNY   86  78  77 W12       29.82S HX  98
WISC RAPIDS    PTSUNNY   86  71  60 NW12      29.85S HX  91
CAMP DOUGLAS   MOSUNNY   86  76  71 W13G21    29.84R HX  95
$$

WIZ011>013-019>022-031-037>040-048>050-242000-
NORTHEAST WISCONSIN

CITY           SKY/WX    TMP DP  RH WIND       PRES   REMARKS
ANTIGO         CLOUDY    75  74  95 CALM      29.85R
SHAWANO        CLOUDY    81  76  84 W3        29.80S HX  86
OCONTO         CLOUDY    79  79 100 SW7       29.79S HX  83
STURGEON BAY   CLOUDY    76  73  91 S14       29.80F
GREEN BAY      CLOUDY    80  78  94 S6        29.79F HX  88
MANITOWOC      CLOUDY    76  72  87 S13       29.82F
APPLETON       CLOUDY    81  79  94 SW7       29.80F HX  89
CLINTONVILLE   CLOUDY    79  75  89 W6        29.81R HX  82
OSHKOSH        PTSUNNY   87  78  74 SW8       29.80F HAZE    HX 100
$$

WIZ032>034-041-042-053>061-242000-
SOUTHWEST WISCONSIN

CITY           SKY/WX    TMP DP  RH WIND       PRES   REMARKS
LA CROSSE      SUNNY     88  65  46 NW13      29.84F HX  90
SPARTA         MOSUNNY   87  66  50 W9G17     29.86S HX  89
VIROQUA        MOSUNNY   84  72  65 W8        29.89S HX  90
BOSCOBEL       MOSUNNY   90  74  59 NW10G20   29.84F HX  99
PRAIRIE DU CHI MOSUNNY   88  71  57 NW13      29.84F HX  93
PLATTEVILLE    CLOUDY    83  81  93 W7        29.88S HX  96
$$

WIZ056-057-062-063-064-067-068-242000-
SOUTH CENTRAL WISCONSIN

CITY           SKY/WX    TMP DP  RH WIND       PRES   REMARKS
REEDSBURG      PTSUNNY  N/A N/A N/A W9        29.84S
BARABOO/DELLS  CLOUDY    84  76  78 W10       29.85R HX  92
LONE ROCK      PTSUNNY   87  79  76 W9        29.84F HX 101
MINERAL POINT  CLOUDY    84  79  84 W7        29.88S HX  96
MADISON        PTSUNNY   88  78  72 W6        29.83S HX 101
MIDDLETON      PTSUNNY   90  80  72 W10       29.85R HX 107
WATERTOWN      PTSUNNY   89  80  75 SW12      29.83S HX 106
MONROE         PTSUNNY   90  77  66 SW14      29.86S HX 102
JANESVILLE     PTSUNNY   91  77  62 SW14      29.84F HX 105
$$

WIZ051-052-058>065-066-070>072-242000-
SOUTHEAST WISCONSIN

CITY           SKY/WX    TMP DP  RH WIND       PRES   REMARKS
MILWAUKEE      PTSUNNY   91  78  65 SW20      29.82F HX 106
WAUKESHA       PTSUNNY   88  75  66 SW12      29.85F HX  97
MILWAUKEE/TIMM PTSUNNY   90  73  58 SW12G20   29.83F HX  98
RACINE         CLOUDY    89  77  67 SW12      29.84F HX 101
BURLINGTON     PTSUNNY   93  83  74 SW15G21   29.84F HX 118
KENOSHA        CLOUDY    92  77  61 SW13G23   29.84F HX 105
FOND DU LAC    MOSUNNY   87  78  74 SW12      29.81F HX 100
SHEBOYGAN      PTSUNNY   78  73  84 S9        29.82F HX  81
WEST BEND      PTSUNNY   86  77  74 SW8       29.83S HX  97
JUNEAU         PTSUNNY   86  78  78 SW9       29.84F HX  98
$$

LSZ147-162-242000-
LAKE SUPERIOR

STATION/POSITION TIME  TEMP    WIND        PRES    WAVE
                       AIR SEA DIR/SP/G            HT/PER
                 (UTC) (F)     (DEG/KT/KT) (MB)    (FT/S)
W MID LAKE BUOY  1850   63 58  220/ 10/ 12 1006.5F   1/ 3
DEVILS ISLAND    1900   71     240/ 23/ 26 1007.5F
PORT WING        1800   77     250/ 11/ 19   N/A
SAXON HARBOR     1800   77     290/  5/  8 1008.1R
$$

LMZ867-665-643>646-242000-
LAKE MICHIGAN

STATION/POSITION TIME  TEMP    WIND        PRES    WAVE
                       AIR SEA DIR/SP/G            HT/PER
                 (UTC) (F)     (DEG/KT/KT) (MB)    (FT/S)
CHAMBERS ISLAND  1800   76     190/  4/ 10 1008.8S
S GREEN BAY BUOY 1800   76 75  210/ 12/ 14   N/A
N MID LAKE BUOY  1850   69 68  210/ 12/ 14 1008.4S   4/ 6
NORTHPORT PIER   1800   72     160/  5/ 10 1009.1S
KEWAUNEE LAKESHO 1800   68     190/ 17/ 20 1009.7R
SHEBOYGAN LAKESH 1900   70     180/ 20/ 22 1009.8F
PORT WASHINGTON  1800   69     190/  5/  9 1011.2F
MILWAUKEE LAKESH 1810   64     140/ 15/ 17   N/A
S MID LAKE BUOY  1850   74 72  150/ 19/ 23 1010.0F   3/ 5
KENOSHA   LAKESH 1900   69     170/ 15/ 18 1009.8F
$$

TC  - TEMPERATURE IN CELSIUS
VSB - VISIBILITY IN STATUTE MILES
WCI - WIND CHILL INDEX
HX  - HEAT INDEX





USA.gov is the U.S. government's official web portal to all federal, state and local government web resources and services.